User: anonymous   Login
Location: Squamish
(49.7000°N, 123.1500°W)
Time: 15:32:53
(UTC-07:00)
Language:

NOAA 19 - Orbit

View from above orbital plane
View from above orbital plane
View from above satellite
View from above satellite

Ground track
Ground track

The orbit data is extracted from the following two-line orbital elements,

1 33591U 09005A   18110.47103873  .00000063  00000-0  59196-4 0  9992
2 33591  99.1375  87.3675 0014783 126.3711 233.8827 14.12271080474034
Epoch (UTC): 20 April 2018 11:18:17
Eccentricity: 0.0014783
inclination: 99.1375°
perigee height: 841 km
apogee height: 862 km
right ascension of ascending node: 87.3675°
argument of perigee: 126.3711°
revolutions per day: 14.12271080
mean anomaly at epoch: 233.8827°
orbit number at epoch: 47403

The dashed part of the orbit path shows where the satellite is in the earth's shadow,  

DLR